KD2BVA Weather Reports


time (UTC)temp
F
wind
direction
speed
knots
gust
knots
rain 1hr
in
rain 24hr
in
rain mn
in
humidity
%
barometer
mb
20260906221037 72 165 0.0 0.9 0.00 0.00 0.00 57 1002.1
20260906220527 72 331 0.0 1.7 0.00 0.00 0.00 55 1002.0
20260906220025 72 297 0.0 2.6 0.00 0.00 0.00 55 1002.0
20260906215535 73 35 0.9 2.6 0.00 0.00 0.00 55 1001.9
20260906215024 74 300 0.0 2.6 0.00 0.00 0.00 54 1001.9
20260906214525 74 108 0.0 1.7 0.00 0.00 0.00 56 1001.9
20260906214034 74 273 0.0 1.7 0.00 0.00 0.00 52 1001.9
20260906213526 74 276 0.0 1.7 0.00 0.00 0.00 56 1001.9
20260906213034 74 287 0.0 2.6 0.00 0.00 0.00 54 1001.9
20260906212543 74 253 0.0 2.6 0.00 0.00 0.00 55 1001.9
20260906212023 74 306 0.0 2.6 0.00 0.00 0.00 56 1001.8
20260906211529 73 290 0.0 3.5 0.00 0.00 0.00 55 1001.8
20260906211038 74 37 0.9 3.5 0.00 0.00 0.00 53 1001.7
20260906210541 75 294 0.9 3.5 0.00 0.00 0.00 53 1001.7
20260906210047 76 261 0.0 1.7 0.00 0.00 0.00 52 1001.7
20260906205556 76 268 0.9 2.6 0.00 0.00 0.00 50 1001.6
20260906205024 77 294 0.0 1.7 0.00 0.00 0.00 55 1001.6
20260906204550 77 111 0.0 1.7 0.00 0.00 0.00 51 1001.6
20260906204100 77 168 0.0 2.6 0.00 0.00 0.00 56 1001.6
20260906203521 76 169 0.9 2.6 0.00 0.00 0.00 54 1001.5
20260906203029 76 291 0.9 2.6 0.00 0.00 0.00 55 1001.5
20260906202539 77 25 0.9 2.6 0.00 0.00 0.00 52 1001.5
20260906202049 77 203 0.9 2.6 0.00 0.00 0.00 53 1001.6
20260906201528 77 96 0.9 3.5 0.00 0.00 0.00 53 1001.6
20260906201042 78 3 0.9 3.5 0.00 0.00 0.00 54 1001.6
20260906200524 78 214 0.0 1.7 0.00 0.00 0.00 54 1001.6
20260906200032 78 158 0.9 1.7 0.00 0.00 0.00 54 1001.6
20260906195520 77 101 0.9 2.6 0.00 0.00 0.00 55 1001.6
20260906195020 77 143 0.9 2.6 0.00 0.00 0.00 55 1001.6
20260906194549 76 81 0.9 3.5 0.00 0.00 0.00 54 1001.6
20260906194056 76 56 0.9 3.5 0.00 0.00 0.00 53 1001.6
20260906193524 76 243 0.0 1.7 0.00 0.00 0.00 51 1001.6
20260906193050 75 134 0.9 6.1 0.00 0.00 0.00 56 1001.7
20260906192601 75 124 1.7 6.1 0.00 0.00 0.00 52 1001.7
20260906192047 75 188 0.9 7.8 0.00 0.00 0.00 54 1001.6
20260906191551 75 25 0.9 7.8 0.00 0.00 0.00 52 1001.7
20260906191039 75 239 0.0 4.3 0.00 0.00 0.00 54 1001.7
20260906190542 75 21 0.9 4.3 0.00 0.00 0.00 56 1001.7
20260906190048 75 245 0.0 1.7 0.00 0.00 0.00 54 1001.8
20260906185555 75 240 0.0 3.5 0.00 0.00 0.00 55 1001.8
20260906185024 74 270 0.9 3.5 0.00 0.00 0.00 55 1001.8
20260906184520 75 95 0.9 3.5 0.00 0.00 0.00 58 1001.8
20260906184030 74 132 0.9 3.5 0.00 0.00 0.00 60 1001.8
20260906183539 74 266 0.0 1.7 0.00 0.00 0.00 62 1001.8
20260906183047 74 54 0.9 1.7 0.00 0.00 0.00 64 1001.9
20260906182526 73 294 0.9 1.7 0.00 0.00 0.00 62 1001.9
20260906182055 73 205 0.0 1.7 0.00 0.00 0.00 63 1002.0
20260906181602 73 220 0.0 1.7 0.00 0.00 0.00 67 1002.1
20260906181027 72 101 0.9 1.7 0.00 0.00 0.00 63 1002.1
20260906180527 72 92 0.0 1.7 0.00 0.00 0.00 67 1002.2
20260906180035 71 155 0.9 1.7 0.00 0.00 0.00 64 1002.2
20260906175524 72 326 0.0 1.7 0.00 0.00 0.00 65 1002.2
20260906175023 71 81 0.0 1.7 0.00 0.00 0.00 66 1002.1
20260906174532 71 232 0.0 1.7 0.00 0.00 0.00 71 1002.2
20260906174040 71 229 0.0 1.7 0.00 0.00 0.00 66 1002.3
20260906173550 71 243 0.0 0.9 0.00 0.00 0.00 67 1002.3
20260906173026 71 203 0.0 3.5 0.00 0.00 0.00 69 1002.3
20260906172535 71 260 0.9 3.5 0.00 0.00 0.00 66 1002.3
20260906172036 71 143 1.7 4.3 0.00 0.00 0.00 64 1002.3
20260906171525 71 279 0.9 4.3 0.00 0.00 0.00 64 1002.3
20260906171031 70 221 0.9 3.5 0.00 0.00 0.00 67 1002.4
20260906170533 70 153 0.9 1.7 0.00 0.00 0.00 67 1002.5
20260906170039 70 123 0.0 0.9 0.00 0.00 0.00 68 1002.5
20260906165544 71 122 0.0 1.7 0.00 0.00 0.00 71 1002.5
20260906165025 72 271 0.0 1.7 0.00 0.00 0.00 70 1002.5
20260906164533 72 255 0.0 4.3 0.00 0.00 0.00 68 1002.5
20260906164043 72 106 0.9 3.5 0.00 0.00 0.00 70 1002.6
20260906163546 72 283 0.9 3.5 0.00 0.00 0.00 70 1002.6
20260906163104 72 262 0.9 2.6 0.00 0.00 0.00 69 1002.6
20260906162523 71 68 0.9 3.5 0.00 0.00 0.00 70 1002.7
20260906162033 72 55 0.9 3.5 0.00 0.00 0.00 69 1002.7
20260906161533 71 126 0.0 1.7 0.00 0.00 0.00 71 1002.7
20260906161022 71 113 0.0 2.6 0.00 0.00 0.00 73 1002.8
20260906160533 71 248 0.9 1.7 0.00 0.00 0.00 72 1002.8
20260906160031 70 273 0.0 3.5 0.00 0.00 0.00 71 1002.8
20260906155521 70 131 0.9 3.5 0.00 0.00 0.00 70 1003.0
20260906155032 70 219 0.9 1.7 0.00 0.00 0.00 76 1003.0
20260906154528 69 269 0.0 1.7 0.00 0.00 0.00 77 1003.1
20260906154036 69 219 0.0 3.5 0.00 0.00 0.00 81 1003.0
20260906153543 68 239 0.0 3.5 0.00 0.00 0.00 78 1003.0
20260906153022 68 143 0.0 1.7 0.00 0.00 0.00 78 1003.0
20260906152551 67 83 0.9 3.5 0.00 0.00 0.00 80 1003.0
20260906152058 67 102 0.9 3.5 0.00 0.00 0.00 81 1003.1
20260906151524 66 110 0.0 2.6 0.00 0.00 0.00 80 1003.2
20260906151033 66 75 0.0 2.6 0.00 0.00 0.00 81 1003.2
20260906150545 66 258 0.9 2.6 0.00 0.00 0.00 79 1003.1
20260906150023 66 48 0.0 1.7 0.00 0.00 0.00 82 1003.1
20260906145532 66 90 0.0 2.6 0.00 0.00 0.00 82 1003.1
20260906145044 65 6 0.9 2.6 0.00 0.00 0.00 82 1003.0
20260906144542 65 255 0.0 1.7 0.00 0.00 0.00 87 1003.1
20260906144028 64 108 0.9 1.7 0.00 0.00 0.00 88 1003.2
20260906143602 63 143 0.0 1.7 0.00 0.00 0.00 88 1003.2
20260906143107 63 110 0.0 2.6 0.00 0.00 0.00 88 1003.1
20260906142555 63 241 0.9 2.6 0.00 0.00 0.00 86 1003.0
20260906142105 63 233 0.9 1.7 0.00 0.00 0.00 85 1003.0
20260906141545 64 226 0.0 1.7 0.00 0.00 0.00 86 1003.0
20260906141032 64 281 0.0 0.9 0.00 0.00 0.00 87 1002.9
20260906140544 64 146 0.0 0.9 0.00 0.00 0.00 85 1002.8
20260906140020 63 200 0.0 0.9 0.00 0.00 0.00 87 1002.8
20260906135529 63 165 0.0 0.9 0.00 0.00 0.00 88 1002.7
20260906135038 63 220 0.0 0.9 0.00 0.00 0.00 88 1002.8
20260906134542 63 258 0.0 0.9 0.00 0.00 0.00 88 1002.8
20260906134022 63 276 0.0 0.9 0.00 0.00 0.00 88 1002.7
20260906133546 63 295 0.0 0.9 0.00 0.00 0.00 88 1002.6
20260906133103 63 287 0.0 0.9 0.00 0.00 0.00 90 1002.6
20260906132541 62 287 0.0 1.7 0.00 0.00 0.00 89 1002.6
20260906132028 62 238 0.9 1.7 0.00 0.00 0.00 89 1002.5
20260906131525 62 270 0.0 2.6 0.00 0.00 0.00 90 1002.6
20260906131034 62 124 0.9 2.6 0.00 0.00 0.00 90 1002.5
20260906130525 62 140 0.0 1.7 0.00 0.00 0.00 92 1002.5
20260906130043 61 250 0.0 0.9 0.00 0.00 0.00 94 1002.5
20260906125524 61 250 0.0 0.9 0.00 0.00 0.00 94 1002.5
20260906125032 60 250 0.0 0.9 0.00 0.00 0.00 94 1002.6
20260906124542 60 243 0.0 1.7 0.00 0.00 0.00 95 1002.5
20260906124042 60 224 0.0 1.7 0.00 0.00 0.00 96 1002.5
20260906123531 59 308 0.0 1.7 0.00 0.00 0.00 97 1002.4
20260906123027 58 294 0.0 1.7 0.00 0.00 0.00 97 1002.4
20260906122527 58 121 0.0 0.0 0.00 0.00 0.00 98 1002.4
20260906122032 57 121 0.0 0.0 0.00 0.00 0.00 98 1002.4
20260906121534 57 121 0.0 0.0 0.00 0.00 0.00 97 1002.3
20260906121043 57 121 0.0 0.0 0.00 0.00 0.00 97 1002.2
20260906120525 57 121 0.0 0.0 0.00 0.00 0.00 97 1002.2
20260906120032 57 121 0.0 0.9 0.00 0.00 0.00 97 1002.2
20260906115543 57 121 0.0 0.9 0.00 0.00 0.00 97 1002.2
20260906115022 57 121 0.0 0.0 0.00 0.00 0.00 97 1002.1
20260906114533 57 121 0.0 0.0 0.00 0.00 0.00 97 1002.1
20260906114043 57 121 0.0 0.9 0.00 0.00 0.00 97 1001.9
20260906113544 57 121 0.0 0.0 0.00 0.00 0.00 96 1001.8
20260906113104 57 121 0.0 0.9 0.00 0.00 0.00 96 1001.7
20260906112539 57 121 0.0 0.9 0.00 0.00 0.00 96 1001.6
20260906112043 57 120 0.0 0.0 0.00 0.00 0.00 96 1001.5
20260906111547 57 131 0.0 0.9 0.00 0.00 0.00 96 1001.5
20260906111035 57 131 0.0 0.9 0.00 0.00 0.00 96 1001.4
20260906110546 57 86 0.0 0.0 0.00 0.00 0.00 96 1001.4
20260906110023 58 86 0.0 0.0 0.00 0.00 0.00 96 1001.4
20260906105532 58 86 0.0 0.0 0.00 0.00 0.00 96 1001.3
20260906105033 58 86 0.0 0.0 0.00 0.00 0.00 96 1001.1
20260906104522 58 86 0.0 0.0 0.00 0.00 0.00 96 1001.2
20260906104031 58 86 0.0 0.0 0.00 0.00 0.00 96 1001.1
20260906103532 58 86 0.0 0.0 0.00 0.00 0.00 96 1001.0
20260906103039 58 86 0.0 0.9 0.00 0.00 0.00 96 1000.9
20260906102519 58 68 0.0 0.9 0.00 0.00 0.00 96 1000.8
20260906102029 58 68 0.0 0.9 0.00 0.00 0.00 95 1000.7
20260906101539 59 281 0.0 0.9 0.00 0.00 0.00 95 1000.8
20260906101045 59 281 0.0 0.9 0.00 0.00 0.00 95 1000.7
20260906100525 59 281 0.0 0.9 0.00 0.00 0.00 96 1000.6
20260906100033 59 282 0.0 0.9 0.00 0.00 0.00 96 1000.7
20260906095536 59 283 0.0 0.9 0.00 0.00 0.00 96 1000.7
20260906095036 59 283 0.0 0.9 0.00 0.00 0.00 96 1000.7
20260906094526 59 285 0.0 0.9 0.00 0.00 0.00 96 1000.6
20260906094023 59 265 0.0 0.9 0.00 0.00 0.00 96 1000.5
20260906093534 59 262 0.0 0.9 0.00 0.00 0.00 96 1000.5
20260906093022 60 262 0.0 0.9 0.00 0.00 0.00 96 1000.4
20260906092551 60 107 0.0 0.9 0.00 0.00 0.00 96 1000.4
20260906092029 60 106 0.0 0.9 0.00 0.00 0.00 96 1000.4
20260906091538 60 106 0.0 0.0 0.00 0.00 0.00 96 1000.3
20260906091047 60 106 0.0 4.3 0.00 0.00 0.00 96 1000.3
20260906090529 60 104 0.0 4.3 0.00 0.00 0.00 96 1000.2
20260906090036 60 84 0.9 3.5 0.00 0.00 0.00 97 1000.2
20260906085542 60 255 0.0 2.6 0.00 0.00 0.00 97 1000.2
20260906085048 60 74 0.0 2.6 0.00 0.00 0.00 97 1000.1
20260906084526 60 129 0.0 0.0 0.00 0.00 0.00 97 1000.1
20260906084031 60 129 0.0 0.0 0.00 0.00 0.00 97 1000.0
20260906083539 60 129 0.0 0.0 0.00 0.00 0.00 97 999.9
20260906083046 60 129 0.0 0.0 0.00 0.00 0.00 97 999.8
20260906082526 60 129 0.0 0.0 0.00 0.00 0.00 97 999.8
20260906082035 60 129 0.0 0.9 0.00 0.00 0.00 97 999.7
20260906081532 60 269 0.0 0.9 0.00 0.00 0.00 97 999.7
20260906081043 60 269 0.0 0.9 0.00 0.00 0.00 97 999.7
20260906080530 60 269 0.0 0.9 0.00 0.00 0.00 97 999.7
20260906080039 60 141 0.0 0.0 0.00 0.00 0.00 97 999.7
20260906075546 60 141 0.0 0.0 0.00 0.00 0.00 96 999.7
20260906075054 60 141 0.0 0.9 0.00 0.00 0.00 97 999.7
20260906074534 60 141 0.0 0.9 0.00 0.00 0.00 97 999.6
20260906074023 60 140 0.0 0.0 0.00 0.00 0.00 96 999.6
20260906073536 60 140 0.0 0.0 0.00 0.00 0.00 96 999.6
20260906073030 60 140 0.0 0.0 0.00 0.00 0.00 96 999.6
20260906072519 60 140 0.0 0.0 0.00 0.00 0.00 96 999.6
20260906072049 60 140 0.0 0.0 0.00 0.00 0.00 96 999.5
20260906071527 60 141 0.0 0.0 0.00 0.00 0.00 96 999.4
20260906071037 60 140 0.0 0.0 0.00 0.00 0.00 96 999.3
20260906070549 60 140 0.0 0.0 0.00 0.00 0.00 95 999.3
20260906070026 61 140 0.0 0.0 0.00 0.00 0.00 95 999.2
20260906065535 61 140 0.0 0.0 0.00 0.00 0.00 95 999.2
20260906065045 61 140 0.0 0.0 0.00 0.00 0.00 95 999.3
20260906064525 61 141 0.0 0.0 0.00 0.00 0.00 95 999.2
20260906064035 61 140 0.0 0.0 0.00 0.00 0.00 95 999.3
20260906063547 61 140 0.0 0.0 0.00 0.00 0.00 95 999.3
20260906063024 61 140 0.0 0.0 0.00 0.00 0.00 95 999.4
20260906062533 61 140 0.0 0.0 0.00 0.00 0.00 95 999.3
20260906062042 61 140 0.0 0.0 0.00 0.00 0.00 95 999.3
20260906061522 61 140 0.0 0.0 0.00 0.00 0.00 95 999.3
20260906061032 61 140 0.0 0.0 0.00 0.00 0.00 94 999.3
20260906060530 62 140 0.0 0.0 0.00 0.00 0.00 94 999.3
20260906060038 62 140 0.0 0.0 0.00 0.00 0.00 94 999.3
20260906055543 62 140 0.0 0.0 0.00 0.00 0.00 94 999.4
20260906055051 62 140 0.0 0.0 0.00 0.00 0.00 94 999.5
20260906054539 62 140 0.0 0.0 0.00 0.00 0.00 94 999.4
20260906054046 62 140 0.0 0.0 0.00 0.00 0.00 94 999.4
20260906053545 62 140 0.0 0.0 0.00 0.00 0.00 94 999.4
20260906053032 62 140 0.0 0.0 0.00 0.00 0.00 93 999.4
20260906052542 62 140 0.0 0.0 0.00 0.00 0.00 93 999.3
20260906052022 62 140 0.0 0.0 0.00 0.00 0.00 93 999.3
20260906051532 62 140 0.0 0.0 0.00 0.00 0.00 92 999.3
20260906051041 62 140 0.0 0.0 0.00 0.00 0.00 92 999.3
20260906050542 62 140 0.0 0.9 0.00 0.00 0.00 92 999.3
20260906050027 63 140 0.0 0.9 0.00 0.00 0.00 92 999.3
20260906045532 63 169 0.0 0.0 0.00 0.00 0.00 92 999.3
20260906045033 63 155 0.0 0.0 0.00 0.00 0.00 93 999.3
20260906044522 63 133 0.0 0.9 0.00 0.00 0.00 93 999.3
20260906044024 63 133 0.0 0.9 0.00 0.00 0.00 93 999.2
20260906043536 62 130 0.0 1.7 0.00 0.00 0.00 94 999.2
20260906043042 62 126 0.0 1.7 0.00 0.00 0.00 94 999.2
20260906042550 62 131 0.0 0.9 0.00 0.00 0.00 94 999.3
20260906042036 62 131 0.0 0.9 0.00 0.00 0.00 94 999.3
20260906041545 62 131 0.0 0.9 0.00 0.00 0.00 94 999.3
20260906041025 62 131 0.0 0.9 0.00 0.00 0.00 94 999.3
20260906040537 62 131 0.0 0.0 0.00 0.00 0.00 94 999.3
20260906040042 62 131 0.0 0.0 0.00 0.00 0.00 94 999.3
20260906035521 62 131 0.0 0.0 0.00 0.00 0.00 94 999.3
20260906035031 62 131 0.0 0.0 0.00 0.00 0.00 94 999.2
20260906034527 62 131 0.0 0.0 0.00 0.00 0.00 94 999.1
20260906034030 62 131 0.0 1.7 0.00 0.00 0.00 94 999.2
20260906033541 62 131 0.0 1.7 0.00 0.00 0.00 95 999.1
20260906033029 62 132 0.0 0.9 0.00 0.00 0.00 95 999.2
20260906032530 62 172 0.0 0.0 0.00 0.00 0.00 95 999.1
20260906032039 62 172 0.0 0.0 0.00 0.00 0.00 95 999.1
20260906031549 62 129 0.0 0.9 0.00 0.00 0.00 95 999.1
20260906031100 61 129 0.0 0.9 0.00 0.00 0.00 96 999.1
20260906030612 61 128 0.0 0.0 0.00 0.00 0.00 96 999.1
20260906030100 61 128 0.0 0.0 0.00 0.00 0.00 96 999.1
20260906025608 61 128 0.0 0.0 0.00 0.00 0.00 96 999.0
20260906025046 61 133 0.0 0.0 0.00 0.00 0.00 96 999.1
20260906024546 61 133 0.0 0.0 0.00 0.00 0.00 95 999.0
20260906024105 61 133 0.0 0.0 0.00 0.00 0.00 95 999.0
20260906023525 61 133 0.0 0.0 0.00 0.00 0.00 95 998.9
20260906023030 61 133 0.0 0.0 0.00 0.00 0.00 95 998.9
20260906022540 61 133 0.0 0.0 0.00 0.00 0.00 95 998.9
20260906022020 61 133 0.0 0.0 0.00 0.00 0.00 95 998.9
20260906021530 61 133 0.0 0.0 0.00 0.00 0.00 95 998.8
20260906021039 61 133 0.0 0.0 0.00 0.00 0.00 95 998.8
20260906020521 61 133 0.0 0.0 0.00 0.00 0.00 95 998.7
20260906020048 61 133 0.0 0.0 0.00 0.00 0.00 95 998.8
20260906015555 61 133 0.0 0.9 0.00 0.00 0.00 95 998.8
20260906015023 61 133 0.0 0.9 0.00 0.00 0.00 95 998.7
20260906014549 61 112 0.0 0.9 0.00 0.00 0.00 95 998.8
20260906014026 61 150 0.0 0.0 0.00 0.00 0.00 94 998.8
20260906013538 61 150 0.0 0.0 0.00 0.00 0.00 94 998.8
20260906013046 62 150 0.0 0.0 0.00 0.00 0.00 94 998.9
20260906012542 62 150 0.0 0.0 0.00 0.00 0.00 94 998.9
20260906012103 62 150 0.0 0.0 0.00 0.00 0.00 94 998.8
20260906011522 62 150 0.0 0.0 0.00 0.00 0.00 94 998.8
20260906011031 62 150 0.0 0.0 0.00 0.00 0.00 94 998.7
20260906010534 62 150 0.0 0.0 0.00 0.00 0.00 95 998.8
20260906010022 62 150 0.0 0.9 0.00 0.00 0.00 95 998.8
20260906005533 62 119 0.0 0.0 0.00 0.00 0.00 95 998.8
20260906005057 62 119 0.0 0.0 0.00 0.00 0.00 95 998.8
20260906004603 62 119 0.0 0.0 0.00 0.00 0.00 95 998.7
20260906004040 61 119 0.0 0.0 0.00 0.00 0.00 95 998.7
20260906003559 61 119 0.0 0.0 0.00 0.00 0.00 95 998.6
20260906003107 61 119 0.0 0.0 0.00 0.00 0.00 95 998.6
20260906002526 61 119 0.0 0.0 0.00 0.00 0.00 94 998.5
20260906002036 61 119 0.0 0.0 0.00 0.00 0.00 94 998.5
20260906001544 62 119 0.0 0.0 0.00 0.00 0.00 94 998.5
20260906001024 62 119 0.0 0.0 0.00 0.00 0.00 94 998.4
20260906000535 62 119 0.0 0.0 0.00 0.00 0.00 93 998.5
20260906000033 62 119 0.0 0.0 0.00 0.00 0.00 93 998.4
20260905235520 62 119 0.0 0.0 0.00 0.00 0.00 92 998.3
20260905235030 62 120 0.0 0.0 0.00 0.00 0.00 92 998.2
20260905234529 63 119 0.0 0.0 0.00 0.00 0.00 91 998.2
20260905234039 63 119 0.0 0.0 0.00 0.00 0.00 90 998.2
20260905233527 64 119 0.0 0.0 0.00 0.00 0.00 90 998.2
20260905233045 64 119 0.0 0.0 0.00 0.00 0.00 90 998.3
20260905232525 64 119 0.0 0.0 0.00 0.00 0.00 90 998.3
20260905232034 64 119 0.0 0.0 0.00 0.00 0.00 89 998.2
20260905231532 65 119 0.0 0.0 0.00 0.00 0.00 90 998.1
20260905231021 65 119 0.0 0.0 0.00 0.00 0.00 89 998.1
20260905230533 65 119 0.0 0.0 0.00 0.00 0.00 89 998.0
20260905230031 66 119 0.0 0.0 0.00 0.00 0.00 89 997.9
20260905225539 66 119 0.0 0.0 0.00 0.00 0.00 88 997.9
20260905225030 66 119 0.0 0.0 0.00 0.00 0.00 88 997.9
20260905224600 66 119 0.0 0.0 0.00 0.00 0.00 88 997.9
20260905224040 67 119 0.0 0.0 0.00 0.00 0.00 87 997.9
20260905223550 67 119 0.0 0.0 0.00 0.00 0.00 86 997.8
20260905223055 67 119 0.0 0.0 0.00 0.00 0.00 85 997.8
20260905222529 68 119 0.0 0.0 0.00 0.00 0.00 83 997.8
20260905222038 69 119 0.0 0.0 0.00 0.00 0.00 83 997.7
20260905221548 69 119 0.0 0.0 0.00 0.00 0.00 81 997.6